GIA224 OPKC-OEMA

Flight info

Callsign GIA224
Flight time N/A
Altitude 38000
Route MELOM1F/25L MELOM A454 VUSET T500 MCT T506 TULBU M628 PEKEM/N0492F280 M628 MIGMA M550 MEVDO Y511 ELONU
Aircraft B77W/H-SDE1E2E3FGHIJ2J3J4J5M1RWXY/LB1D1

Departure

Time N/A
Airport Jinnah International Airport (OPKC)

Arrival

Time 2026-05-08 17:46
Airport Prince Mohammad Bin Abdulaziz Airport (OEMA)
Time Latitude Longitude Altitude Speed Heading
2026-05-08 17:27 24.29128 40.08383 25238 ft 454 kts 81°
2026-05-08 17:27 24.29619 40.11817 24091 ft 446 kts 81°
2026-05-08 17:28 24.30076 40.15101 22908 ft 438 kts 82°
2026-05-08 17:28 24.30530 40.18375 21640 ft 430 kts 82°
2026-05-08 17:28 24.30989 40.21582 20418 ft 422 kts 82°
2026-05-08 17:28 24.31454 40.24732 19251 ft 414 kts 84°
2026-05-08 17:29 24.31608 40.27841 18089 ft 403 kts 96°
2026-05-08 17:29 24.31240 40.30837 16825 ft 391 kts 107°
2026-05-08 17:29 24.30377 40.33611 15604 ft 379 kts 118°
2026-05-08 17:29 24.29010 40.36020 14428 ft 366 kts 135°
2026-05-08 17:30 24.27064 40.37718 13223 ft 353 kts 155°
2026-05-08 17:30 24.24770 40.38494 12007 ft 342 kts 177°
2026-05-08 17:30 24.22459 40.38254 10997 ft 329 kts 200°
2026-05-08 17:30 24.20595 40.37036 10710 ft 296 kts 226°
2026-05-08 17:31 24.19552 40.35260 10660 ft 264 kts 251°
2026-05-08 17:31 24.19153 40.33397 10567 ft 241 kts 259°
2026-05-08 17:31 24.18906 40.31600 10469 ft 237 kts 260°
2026-05-08 17:31 24.18733 40.29805 10264 ft 238 kts 267°
2026-05-08 17:32 24.18757 40.27964 9994 ft 243 kts 270°
2026-05-08 17:32 24.18824 40.26101 9734 ft 245 kts 270°
2026-05-08 17:32 24.18895 40.24257 9496 ft 242 kts 271°
2026-05-08 17:32 24.18969 40.22413 9188 ft 242 kts 271°
2026-05-08 17:33 24.18902 40.20601 8802 ft 237 kts 252°
2026-05-08 17:33 24.18066 40.19090 8492 ft 234 kts 221°
2026-05-08 17:33 24.16661 40.18224 8151 ft 231 kts 207°
2026-05-08 17:33 24.15420 40.17140 7697 ft 232 kts 238°
2026-05-08 17:34 24.14927 40.15487 7379 ft 232 kts 267°
2026-05-08 17:34 24.15041 40.13750 7226 ft 223 kts 275°
2026-05-08 17:34 24.15216 40.12100 7212 ft 218 kts 276°
2026-05-08 17:34 24.15394 40.10444 7229 ft 219 kts 275°
2026-05-08 17:35 24.15573 40.08794 7225 ft 218 kts 275°
2026-05-08 17:35 24.15750 40.07134 7232 ft 222 kts 275°
2026-05-08 17:35 24.15930 40.05451 7237 ft 223 kts 275°
2026-05-08 17:35 24.16108 40.03761 7233 ft 224 kts 275°
2026-05-08 17:36 24.16285 40.02081 7238 ft 225 kts 275°
2026-05-08 17:36 24.16463 40.00391 7230 ft 222 kts 275°
2026-05-08 17:36 24.16638 39.98715 7227 ft 221 kts 275°
2026-05-08 17:36 24.16811 39.97058 7220 ft 218 kts 275°
2026-05-08 17:37 24.16982 39.95420 7224 ft 215 kts 275°
2026-05-08 17:37 24.17150 39.93802 7210 ft 213 kts 275°
2026-05-08 17:37 24.17317 39.92191 7188 ft 215 kts 275°
2026-05-08 17:37 24.17486 39.90548 7118 ft 219 kts 274°
2026-05-08 17:38 24.17927 39.88983 7048 ft 219 kts 305°
2026-05-08 17:38 24.18979 39.87768 7039 ft 225 kts 311°
2026-05-08 17:38 24.20087 39.86517 6899 ft 230 kts 310°
2026-05-08 17:38 24.21183 39.85253 6756 ft 227 kts 310°
2026-05-08 17:39 24.22250 39.84011 6667 ft 221 kts 310°
2026-05-08 17:39 24.23289 39.82789 6561 ft 219 kts 309°
2026-05-08 17:39 24.24321 39.81563 6464 ft 219 kts 309°
2026-05-08 17:39 24.25349 39.80340 6352 ft 218 kts 309°
2026-05-08 17:40 24.26374 39.79118 6232 ft 218 kts 309°
2026-05-08 17:40 24.27397 39.77898 6133 ft 217 kts 309°
2026-05-08 17:40 24.28541 39.76836 5976 ft 218 kts 333°
2026-05-08 17:40 24.29965 39.76331 5898 ft 214 kts 341°
2026-05-08 17:41 24.31423 39.75934 5699 ft 217 kts 343°
2026-05-08 17:41 24.32891 39.75597 5505 ft 213 kts 345°
2026-05-08 17:41 24.34325 39.75288 5338 ft 208 kts 345°
2026-05-08 17:41 24.35724 39.74990 5180 ft 209 kts 345°
2026-05-08 17:42 24.37163 39.74684 5040 ft 211 kts 345°
2026-05-08 17:42 24.38604 39.74378 4867 ft 211 kts 346°
2026-05-08 17:42 24.40030 39.74078 4688 ft 204 kts 346°
2026-05-08 17:42 24.40943 39.73885 4553 ft 192 kts 345°
2026-05-08 17:43 24.42595 39.73533 4233 ft 174 kts 345°
2026-05-08 17:43 24.43792 39.73276 4036 ft 176 kts 345°
2026-05-08 17:43 24.44605 39.73102 3895 ft 176 kts 345°
2026-05-08 17:43 24.45801 39.72850 3666 ft 170 kts 345°
2026-05-08 17:44 24.46909 39.72614 3464 ft 159 kts 344°
2026-05-08 17:44 24.47985 39.72385 3289 ft 154 kts 344°
2026-05-08 17:44 24.49023 39.72162 3075 ft 153 kts 344°
2026-05-08 17:44 24.50057 39.71942 2893 ft 152 kts 345°
2026-05-08 17:45 24.51117 39.71716 2691 ft 155 kts 347°
2026-05-08 17:45 24.52139 39.71502 2463 ft 145 kts 347°
2026-05-08 17:45 24.53104 39.71296 2259 ft 146 kts 348°
2026-05-08 17:45 24.54132 39.71072 2140 ft 152 kts 348°
2026-05-08 17:46 24.55078 39.70875 2129 ft 114 kts 350°
2026-05-08 17:46 24.55627 39.70761 2130 ft 49 kts 349°
2026-05-08 17:46 24.55957 39.70696 2132 ft 43 kts 354°
2026-05-08 17:46 24.56212 39.70724 2138 ft 25 kts 17°
2026-05-08 17:47 24.56269 39.70771 2142 ft 7 kts 71°
2026-05-08 17:47 24.56240 39.70815 2143 ft 8 kts 150°
2026-05-08 17:47 24.56185 39.70835 2143 ft 9 kts 169°
2026-05-08 17:47 24.56112 39.70849 2142 ft 13 kts 169°
2026-05-08 17:48 24.56022 39.70882 2142 ft 14 kts 141°
2026-05-08 17:48 24.56006 39.70983 2145 ft 14 kts 82°
2026-05-08 17:48 24.55966 39.71073 2145 ft 14 kts 154°
2026-05-08 17:48 24.55868 39.71099 2145 ft 15 kts 167°
2026-05-08 17:49 24.55768 39.71121 2145 ft 15 kts 169°
2026-05-08 17:49 24.55670 39.71142 2145 ft 13 kts 169°
2026-05-08 17:49 24.55587 39.71158 2145 ft 8 kts 169°
2026-05-08 17:49 24.55531 39.71170 2145 ft 8 kts 169°
2026-05-08 17:50 24.55472 39.71182 2145 ft 9 kts 169°
2026-05-08 17:50 24.55412 39.71189 2144 ft 9 kts 184°
2026-05-08 17:50 24.55380 39.71242 2145 ft 10 kts 86°
2026-05-08 17:50 24.55385 39.71290 2146 ft 0 kts 79°